Location: Godiavel Galaoual
(15.2485°N, 12.6604°W)
Time: 11:51:27
(UTC+00:00)

deb Explorer IX - Visible Passes

Search period start: 13 June 2021 00:00
Search period end: 23 June 2021 00:00
Orbit: 542 x 1097 km, 38.8° (Epoch: 12 June)

Date Brightness Start Highest point End Pass type
(mag) Time Alt. Az. Time Alt. Az. Time Alt. Az.
14 Jun ? 05:49:07 10° SSW 05:52:34 24° SE 05:55:52 10° E visible
15 Jun ? 05:25:15 10° SSW 05:28:48 24° SE 05:32:10 10° E visible
16 Jun ? 05:02:44 17° S 05:05:01 25° SE 05:08:28 10° E visible
17 Jun ? 04:40:21 24° SSE 04:41:15 26° SE 04:44:46 10° E visible
18 Jun ? 04:17:55 26° SE 04:17:55 26° SE 04:21:04 10° E visible
19 Jun ? 03:55:25 21° ESE 03:55:25 21° ESE 03:57:23 10° E visible
19 Jun ? 05:36:41 12° W 05:40:16 33° NW 05:44:02 10° NNE visible
20 Jun ? 03:32:52 14° E 03:32:52 14° E 03:33:42 10° E visible
20 Jun ? 05:14:08 21° W 05:16:29 34° NW 05:20:19 10° NNE visible
21 Jun ? 04:51:31 30° WNW 04:52:40 34° NW 04:56:36 10° NNE visible
22 Jun ? 04:28:50 35° NW 04:28:51 35° NW 04:32:52 10° NNE visible
